Moses Lake, WA

10:03 PM PDT on August 25, 2016 (GMT -0700)
Grant County International

Weather History for KMWH - January, 2014

Change the Weather History Date:

Thursday, January 30, 2014

  Actual Average Record
Temperature  
Mean Temperature 27 °F 32 °F  
Max Temperature 34 °F 39 °F 55 °F (2013)
Min Temperature 20 °F 25 °F -4 °F (1980)
Degree Days  
Heating Degree Days 38 33  
Month to date heating degree days 963 1054  
Since 1 July heating degree days 3647 3641  
Cooling Degree Days 0 0  
Month to date cooling degree days 0 0  
Year to date cooling degree days 0 0  
Moisture  
Dew Point 24 °F    
Average Humidity 89    
Maximum Humidity 96    
Minimum Humidity 82    
Precipitation  
Precipitation 0.00 in 0.02 in 0.35 in (1987)
Month to date precipitation 0.40 1.12  
Year to date precipitation 0.40 1.12  
Sea Level Pressure  
Sea Level Pressure 29.84 in    
Wind  
Wind Speed 4 mph (North)    
Max Wind Speed 9 mph    
Max Gust Speed 10 mph    
Visibility 6 miles    
Events Fog    
T = Trace of Precipitation, MM = Missing Value Source: NWS Daily Summary

Daily Weather History Graph

Daily Weather History Graph

Search for Another Location

Airport or City:

Trip Planner

Search our weather history database for the weather conditions in past years. The results will help you decide how hot, cold, wet, or windy it might be!

Date:

Astronomy

Jan. 30, 2014 Rise Set
Actual Time 7:25 AM PST 4:56 PM PST
Civil Twilight 6:52 AM PST 5:29 PM PST
Nautical Twilight 6:15 AM PST 6:06 PM PST
Astronomical Twilight 5:39 AM PST 6:42 PM PST
Moon 6:51 AM PST (1/30) 5:19 PM PST (1/30)
Length of Visible Light 10h 37m
Length of Day
9h 31m
Waning Crescent, 0% of the Moon is Illuminated
Jan 30
Waning Crescent
Jan 30
New
Feb 6
First Quarter
Feb 14
Full
Feb 22
Last Quarter

Hourly Weather History & Observations

Time (PST) Temp. Windchill Dew Point Humidity Pressure Visibility Wind Dir Wind Speed Gust Speed Precip Events Conditions
12:52 AM 24.1 °F 17.0 °F 21.9 °F 91% 29.81 in 6.0 mi SE 5.8 mph - N/A   Clear
1:52 AM 24.1 °F - 23.0 °F 96% 29.82 in 7.0 mi Calm Calm - N/A   Clear
2:36 AM 21.2 °F 16.4 °F 19.4 °F 93% 29.78 in 1.5 mi SSE 3.5 mph - N/A   Partly Cloudy
2:43 AM 23.0 °F - 21.2 °F 93% 29.78 in 0.2 mi Calm Calm - N/A Fog Light Freezing Fog
2:52 AM 23.0 °F - 21.9 °F 96% 29.83 in 0.5 mi Calm Calm - N/A Fog Light Freezing Fog
2:59 AM 23.0 °F - 21.2 °F 93% 29.79 in 2.0 mi Calm Calm - N/A   Overcast
3:07 AM 23.0 °F - 19.4 °F 86% 29.79 in 3.0 mi Calm Calm - N/A   Overcast
3:15 AM 21.2 °F 16.4 °F 21.2 °F 100% 29.79 in 5.0 mi NE 3.5 mph - N/A   Overcast
3:52 AM 21.0 °F - 19.0 °F 92% 29.82 in 4.0 mi Calm Calm - N/A   Scattered Clouds
4:33 AM 21.2 °F 14.9 °F 19.4 °F 93% 29.78 in 6.0 mi North 4.6 mph - N/A   Scattered Clouds
4:45 AM 21.2 °F 13.6 °F 19.4 °F 93% 29.78 in 6.0 mi North 5.8 mph - N/A   Mostly Cloudy
4:52 AM 21.0 °F 13.4 °F 19.0 °F 92% 29.83 in 3.0 mi North 5.8 mph - N/A   Overcast
5:00 AM 21.2 °F 16.4 °F 19.4 °F 93% 29.78 in 2.0 mi North 3.5 mph - N/A   Overcast
5:22 AM 21.2 °F 13.6 °F 21.2 °F 100% 29.78 in 0.8 mi North 5.8 mph - N/A   Mist
5:52 AM 24.1 °F 17.0 °F 21.9 °F 91% 29.82 in 0.5 mi North 5.8 mph - N/A Fog Light Freezing Fog
6:04 AM 23.0 °F 15.8 °F 21.2 °F 93% 29.78 in 2.0 mi North 5.8 mph - N/A   Overcast
6:12 AM 23.0 °F 13.9 °F 21.2 °F 93% 29.78 in 5.0 mi North 8.1 mph - N/A   Overcast
6:52 AM 24.1 °F 16.0 °F 21.9 °F 91% 29.83 in 10.0 mi North 6.9 mph - N/A   Overcast
7:52 AM 25.0 °F - 23.0 °F 92% 29.83 in 10.0 mi Calm Calm - N/A   Overcast
8:52 AM 28.0 °F - 26.1 °F 92% 29.83 in 10.0 mi Calm Calm - N/A   Overcast
9:52 AM 28.0 °F 22.8 °F 26.1 °F 92% 29.86 in 10.0 mi North 4.6 mph - N/A   Overcast
10:52 AM 30.9 °F 26.2 °F 28.0 °F 89% 29.87 in 10.0 mi North 4.6 mph - N/A   Overcast
11:52 AM 32.0 °F 28.7 °F 28.9 °F 88% 29.87 in 7.0 mi North 3.5 mph - N/A   Overcast
12:52 PM 33.1 °F 28.7 °F 30.0 °F 89% 29.86 in 7.0 mi NNW 4.6 mph - N/A   Overcast
1:52 PM 33.1 °F 25.5 °F 30.0 °F 89% 29.86 in 9.0 mi NNW 9.2 mph - N/A   Overcast
2:52 PM 33.1 °F 27.7 °F 30.0 °F 89% 29.88 in 10.0 mi NNW 5.8 mph - N/A   Overcast
3:20 PM 33.8 °F - 28.4 °F 81% 29.85 in 10.0 mi Calm Calm - N/A   Overcast
3:52 PM 33.1 °F - 28.9 °F 85% 29.89 in 10.0 mi Calm Calm - N/A   Overcast
4:52 PM 32.0 °F 27.5 °F 28.9 °F 88% 29.89 in 10.0 mi NNW 4.6 mph - N/A   Overcast
5:52 PM 32.0 °F 28.7 °F 30.0 °F 92% 29.91 in 10.0 mi NW 3.5 mph - N/A   Overcast
6:52 PM 30.0 °F 25.2 °F 28.9 °F 96% 29.91 in 9.0 mi West 4.6 mph - N/A   Clear
7:52 PM 30.0 °F 26.5 °F 28.0 °F 92% 29.93 in 6.0 mi West 3.5 mph - N/A   Mostly Cloudy
8:52 PM 28.9 °F - 27.0 °F 92% 29.93 in 10.0 mi Calm Calm - N/A   Mostly Cloudy
9:52 PM 30.0 °F 25.2 °F 27.0 °F 88% 29.94 in 10.0 mi NW 4.6 mph - N/A   Overcast
10:52 PM 30.0 °F 26.5 °F 28.0 °F 92% 29.95 in 10.0 mi NNW 3.5 mph - N/A   Overcast
11:52 PM 30.9 °F 25.2 °F 28.9 °F 92% 29.96 in 10.0 mi NNW 5.8 mph - N/A   Overcast